Temp_Advection
nan nan nan nan nan nan nan nan nan nan nan nan nan nan nan nan nan nan nan nan nan nan nan nan nan nan nan nan nan nan nan nan nan nan nan nan nan nan nan nan nan nan nan nan nan nan nan nan nan nan nan nan nan nan nan nan nan nan nan nan nan nan nan nan nan nan nan nan nan
nan 1 0 -0 -1 -1 -1 -2 -1 -0 -0 -1 -0 0 0 0 0 0 0 1 1 1 1 0 0 0 0 0 0 0 0 1 1 1 1 0 0 0 0 1 1 1 1 1 1 1 1 1 1 1 0 -0 -0 -1 -0 -0 0 0 0 -0 -0 -0 0 0 0 0 0 0 nan
nan 0 0 -0 -1 -1 -1 -1 -1 -1 -1 -0 -0 0 1 1 1 1 1 1 1 1 1 0 0 0 0 1 1 1 1 1 1 1 1 0 0 1 1 1 1 1 1 1 1 1 1 1 1 1 1 0 -0 -0 -0 -0 0 0 -0 -0 0 0 0 0 0 0 0 -0 nan
nan -1 -1 -1 -1 -1 -1 -1 -1 -1 -1 -0 -0 0 0 1 1 1 1 1 1 1 1 1 0 0 1 1 1 2 2 2 1 1 1 1 1 1 1 1 1 1 1 1 1 1 1 1 1 1 1 0 0 0 -0 0 0 0 0 0 0 0 0 0 0 0 0 -0 nan
nan -1 -1 -2 -2 -1 -1 -1 -1 -1 -1 -0 -0 -0 0 0 0 0 0 0 1 1 1 1 1 1 1 2 2 2 2 2 2 1 1 1 1 1 1 1 1 1 1 1 1 1 1 1 1 1 1 1 0 0 0 0 0 0 0 0 0 0 0 0 0 0 0 -0 nan
nan -1 -1 -1 -1 -1 -1 -1 -1 -1 -0 -0 -0 0 0 0 0 1 1 1 1 0 1 1 1 2 2 2 3 2 1 1 1 1 1 1 1 1 1 1 1 1 1 1 0 0 0 0 0 0 0 0 0 0 0 0 0 0 0 0 0 0 0 0 0 0 -0 -0 nan
nan -1 -1 -1 -1 -1 -1 -1 -1 -1 -0 -0 0 1 1 0 1 1 1 1 0 1 1 1 2 2 3 3 2 1 1 1 1 1 1 1 1 1 1 1 0 0 0 1 0 0 0 0 0 0 0 0 0 -0 0 0 0 0 0 0 0 0 0 0 0 0 0 0 nan
nan -1 -1 -1 -1 -1 -1 -1 -0 -0 -0 0 1 1 1 1 1 1 1 0 1 1 2 2 2 3 2 2 1 1 0 0 0 0 0 1 1 1 1 1 1 1 1 1 1 1 0 0 0 0 0 0 0 0 0 0 0 0 0 0 0 0 0 0 0 0 0 0 nan
nan -0 -0 -0 -1 -1 -1 -0 0 0 1 1 1 1 1 1 1 1 0 1 1 2 2 2 2 2 1 1 1 0 1 1 1 1 1 1 1 1 1 2 2 2 2 1 1 1 1 1 1 1 0 0 0 0 1 1 1 0 0 0 0 0 0 0 0 0 0 0 nan
nan -0 -0 -0 -0 -0 -0 -0 0 1 1 1 1 1 1 1 1 1 1 2 2 2 2 2 1 1 1 1 0 0 1 2 1 1 2 2 2 2 2 2 2 3 2 2 2 2 1 1 1 1 1 1 1 1 1 1 1 0 0 0 0 0 0 1 0 0 0 0 nan
nan -0 -0 -0 -0 -0 -0 0 1 1 1 1 1 1 1 1 1 1 2 2 2 2 1 1 1 1 1 1 1 1 1 2 2 2 2 3 3 3 3 3 3 3 2 2 2 2 1 1 1 1 1 1 1 1 1 0 0 0 0 1 1 1 1 0 0 0 0 0 nan
nan -0 -0 -0 -0 -0 0 1 1 1 1 1 1 1 1 1 1 2 2 2 1 1 0 0 0 0 1 1 1 2 2 2 2 2 2 2 3 4 3 3 2 2 2 1 1 1 1 1 1 1 1 1 1 1 0 0 0 1 1 1 1 1 0 0 0 0 0 0 nan
nan 0 0 0 0 0 1 1 1 1 1 1 1 0 1 1 1 1 1 1 1 0 0 0 0 0 0 1 1 1 2 2 2 1 1 2 3 3 3 2 1 1 1 1 1 1 1 1 1 1 1 1 0 0 0 1 1 1 1 1 0 0 0 0 0 0 0 -0 nan
nan 0 -0 0 0 0 0 0 0 -0 0 1 1 1 1 1 1 1 1 0 0 0 -0 0 0 0 0 1 1 1 2 2 1 1 1 2 2 2 1 1 1 0 0 1 1 1 1 1 1 0 0 0 0 0 0 1 1 1 0 0 0 0 0 0 0 0 -0 -0 nan
nan 0 -0 0 0 0 0 -0 -0 -0 0 1 1 1 1 0 0 0 0 0 0 0 -0 0 0 0 0 0 1 1 1 1 0 0 1 1 1 0 -0 0 0 0 1 1 1 1 1 1 0 0 0 -0 -0 0 0 0 0 0 0 0 0 0 0 0 -0 -0 -0 0 nan
nan -0 -0 -0 -0 -0 -0 -0 -0 0 1 1 1 1 0 0 0 -0 0 0 0 0 -0 -0 0 0 0 0 0 0 0 0 0 0 1 1 0 -1 -1 -0 0 1 1 1 0 0 0 0 0 0 -0 -0 0 0 0 0 0 0 0 0 0 0 0 -0 -0 0 0 0 nan
nan -0 -0 -1 -1 -0 -0 0 0 1 1 1 1 0 0 0 -0 -0 0 0 0 0 -0 -0 -0 0 0 0 0 0 0 0 -0 0 1 1 -0 -1 -1 -1 -0 0 1 0 0 0 0 0 0 0 0 0 0 0 0 0 0 -0 -0 0 0 0 0 0 0 0 0 0 nan
nan -1 -1 -1 -1 -0 -0 0 1 1 1 1 0 0 0 0 0 0 0 0 0 0 -0 -0 -0 0 0 0 0 -0 -0 -0 -0 0 0 0 -0 -1 -1 -1 -0 -0 -0 -0 0 0 0 0 0 0 0 0 0 0 0 -0 -0 -0 -0 -0 0 0 0 0 0 0 0 0 nan
nan -1 -1 -1 -1 -0 0 0 0 0 0 0 0 0 0 0 0 0 -0 -0 0 0 -0 -0 -0 -0 0 0 0 -0 -0 0 0 0 0 0 0 -0 -0 -0 -0 -1 -1 -1 0 0 0 0 0 -0 0 0 0 -0 -0 -0 -0 -0 -0 0 0 0 0 0 0 0 -0 -0 nan
nan -1 -1 -1 -1 -0 0 0 0 0 0 0 0 0 0 0 0 0 -0 -0 -0 -0 -0 -0 -0 -0 -0 -0 -0 -0 0 0 0 -0 0 0 0 -0 -0 0 -0 -1 -1 -1 0 0 0 0 0 0 0 0 -0 -0 -0 -0 -0 0 0 0 0 0 0 0 -0 -0 -0 -0 nan
nan -0 -0 -1 -0 0 0 0 0 0 0 0 0 0 0 0 0 0 -0 -0 -0 -0 -0 -0 -0 -0 -0 -0 -0 -0 -0 -0 0 0 0 0 -0 -0 0 0 0 -0 -1 -0 -0 -0 0 0 0 0 0 0 0 0 0 0 0 0 0 0 0 0 0 0 0 -0 -0 -0 nan
nan 0 0 -0 0 0 0 0 0 0 0 0 0 0 0 0 0 0 -0 -0 -0 -0 -0 -0 -0 -0 -0 -0 -0 -0 -0 0 0 0 0 0 -0 0 0 0 0 -0 -0 -0 -1 -1 -0 -0 -0 -0 0 0 0 0 0 0 0 0 0 0 0 0 0 0 -0 -0 -0 -0 nan
nan 0 0 0 0 0 0 0 0 0 0 0 0 0 0 -0 -0 -0 0 -0 -0 -0 -0 -0 -0 -0 -0 -0 -0 -0 -0 -0 0 0 0 0 0 0 -0 -0 -0 -0 0 0 -0 -1 -1 -1 -1 -0 -0 -0 -0 -0 -0 0 0 0 0 0 0 0 -0 -0 -0 -0 -0 -0 nan
nan 1 1 1 1 1 0 0 0 0 0 0 0 0 0 -0 -0 -0 -0 -0 -0 -0 -0 -0 -0 -0 -0 -0 -0 -0 -0 -0 -0 0 0 0 0 0 0 0 0 0 -0 0 0 -0 -1 -1 -1 -1 -1 -1 -1 -0 -0 -0 -0 -0 -0 -0 -0 -0 -0 -0 -0 -0 -0 -0 nan
nan 0 0 1 1 0 0 0 0 -0 -0 -0 0 0 -0 -0 -0 -0 -0 -0 -0 -0 -0 -0 -0 -0 -0 -0 -0 -0 -0 -0 -0 0 0 0 0 0 0 0 0 0 0 0 -0 -0 0 -0 -0 -0 -0 -0 -0 -0 -0 -0 -0 -1 -1 -1 -1 -1 -1 -0 -0 -0 -0 -1 nan
nan -0 -0 0 1 0 0 0 0 -0 -0 0 0 -0 -0 -0 -0 -0 -0 -0 -0 -0 -0 -0 -0 -0 -0 -0 -0 -0 -0 -0 -0 -0 0 0 0 0 1 1 0 0 0 0 0 0 1 0 0 -0 -0 -0 -1 -1 -1 -1 -1 -1 -1 -1 -1 -1 -1 -1 -1 -0 -0 -1 nan
nan -1 -0 0 0 0 0 0 0 0 0 -0 -0 -0 -0 -0 -0 -0 -0 -0 -0 -0 -0 -0 -0 -0 -0 -0 -0 -0 -0 -0 -0 -0 -0 0 0 0 0 0 0 0 0 0 0 1 1 1 0 0 -0 -0 -1 -1 -1 -1 -1 -1 -1 -1 -1 -1 -1 -1 -1 -1 -1 -1 nan
nan -0 0 0 0 0 0 0 0 0 -0 -0 -0 -0 -0 -0 -0 -0 -0 -0 -0 -0 -0 -0 -0 -0 -0 -0 -0 -0 -0 -0 -0 -0 -0 -0 0 0 0 -0 -0 0 0 0 0 0 0 0 0 0 -0 -0 -0 -1 -1 -1 -1 -1 -1 -1 -1 -1 -1 -1 -1 -1 -1 -1 nan
nan 0 0 0 0 0 0 0 0 0 -0 -0 -0 -0 -0 -0 -0 -0 -0 -0 -0 -0 -0 -0 -0 -0 -0 -0 -0 -0 -0 -0 -0 -0 -0 -0 -0 0 0 0 0 0 0 0 -0 -0 -0 -0 -0 -0 -0 -0 -0 -0 -0 -1 -1 -1 -1 -1 -1 -1 -1 -1 -1 -1 -0 -0 nan
nan 0 0 0 0 0 0 0 0 0 -0 -0 -0 -0 -0 -0 -0 -0 -0 -0 -0 -0 0 0 -0 -0 -0 -0 -0 -0 -0 -0 -0 -0 -0 -0 -0 -0 -0 0 0 0 0 -0 -0 -0 -0 -0 -0 -0 -0 -0 -0 -0 -1 -1 -1 -1 -1 -1 -1 -1 -1 -1 -1 -1 -0 -0 nan
nan 0 0 0 0 0 0 0 0 0 0 0 -0 -0 -0 -0 -0 -0 -0 -0 -0 -0 0 0 0 -0 -0 -0 -0 -0 -0 -0 -0 -0 -0 -1 -1 -0 -0 -0 -0 -0 -0 -1 -0 -0 -0 -0 -0 -0 -0 -0 -0 -1 -1 -1 -1 -1 -1 -1 -1 -1 -1 -1 -1 -1 -1 -0 nan
nan 0 0 0 0 0 1 1 0 0 0 0 0 -0 -0 -0 -0 -0 -0 -0 -0 -0 0 0 0 -0 -0 -0 -0 -0 -0 -0 -0 -0 -0 -0 -0 -0 -0 -0 -0 -0 -1 -1 -0 -0 0 -0 -0 -0 -0 -0 -0 -0 -0 -0 -0 -0 -0 -0 -0 -0 -0 -0 -0 -0 -0 -0 nan
nan 0 0 0 0 0 1 1 1 1 1 0 0 0 -0 -0 -0 -0 0 -0 -0 -0 -0 0 0 0 0 -0 -0 -0 -0 -0 -0 -0 -0 -0 -0 -0 -0 -1 -0 -0 -1 -1 -1 -0 0 -0 -0 -0 -0 -0 -0 -0 -0 -0 -0 -0 -0 -0 -0 -0 -0 -0 -0 -0 -0 -0 nan
nan -0 0 0 0 0 0 1 1 1 1 1 1 0 0 0 0 -0 -0 -0 -0 -0 0 0 0 0 0 0 0 -0 -0 -0 -0 -0 -0 -0 -0 -0 -0 -0 -0 -0 -0 0 -1 -0 0 0 0 -0 -0 -0 -0 -0 -0 -0 -0 -0 -0 -0 -0 -0 -0 -0 -0 -0 -0 -0 nan
nan -0 -0 0 0 0 0 0 1 1 1 1 1 1 0 0 0 -0 -0 -0 -0 -0 -0 0 0 0 0 0 0 0 -0 -0 -0 -0 -0 -0 -0 -0 -0 -0 -0 -0 -0 0 -0 -1 -0 0 0 0 -0 -0 -0 -0 -0 -0 -0 -0 -0 -0 -0 -0 -0 -0 -0 -0 -0 -0 nan
nan -0 -0 -0 0 0 0 0 0 1 1 1 1 1 1 1 0 0 -0 -0 -0 0 -0 -0 -0 0 0 0 0 0 -0 -0 -0 -0 -0 -0 -0 -0 -0 -0 -0 -0 -0 -0 -0 -0 -0 -0 0 0 0 -0 -0 -0 -0 -0 -0 -0 -0 -0 -0 -0 -0 -0 -0 -0 -0 -0 nan
nan -0 -0 -0 -0 0 0 0 0 0 0 1 1 1 1 1 1 0 0 -0 -0 0 -0 -0 -0 -0 -0 -0 -0 0 -0 -0 -0 -0 -0 -0 -0 -0 -0 -0 -0 -0 -1 -1 -0 -0 -0 -0 -0 -0 0 0 -0 -1 -0 -0 -0 -0 -0 -0 -0 -0 -0 -0 -0 -0 -0 -0 nan
nan 0 -0 -0 -0 -0 0 0 -0 -0 -0 0 0 1 1 1 1 1 0 0 -0 -0 0 0 -0 -0 -0 -0 -0 -0 0 0 0 -0 -0 -0 -0 -0 -0 -0 -0 -0 -1 -0 -0 -0 -0 -0 -0 -0 -0 0 -0 -0 -1 -1 -1 -0 -0 -0 -0 -0 -0 -0 -0 -0 -0 -0 nan
nan 0 0 0 -0 -0 -0 0 -0 -0 -0 -0 0 1 1 1 1 1 1 0 -0 -0 -0 0 0 -0 -0 -0 -0 -0 -0 0 0 0 0 0 0 -0 -0 -0 -0 -0 -0 -0 -0 -0 -0 -0 0 -0 -0 0 -0 -0 -0 -1 -0 -0 -0 -0 -0 -0 -0 -0 -0 -0 -0 -0 nan
nan 0 0 0 -0 -0 -0 0 0 -0 -0 -0 -0 0 0 1 1 1 1 1 0 0 0 0 0 0 0 -0 -0 -0 -0 -0 0 0 0 0 0 0 0 -0 -0 -0 -0 -0 -0 0 -0 -1 0 0 -0 -0 -0 -0 -0 -0 -0 -0 -0 -0 -0 -0 -0 -0 -0 -0 -0 -0 nan
nan nan nan nan nan nan nan nan nan nan nan nan nan nan nan nan nan nan nan nan nan nan nan nan nan nan nan nan nan nan nan nan nan nan nan nan nan nan nan nan nan nan nan nan nan nan nan nan nan nan nan nan nan nan nan nan nan nan nan nan nan nan nan nan nan nan nan nan nan
Wind_Speed
33 32 32 32 32 32 32 31 30 28 28 28 29 28 28 28 28 28 28 28 29 29 30 30 31 32 34 34 34 34 34 35 35 35 35 34 35 35 35 34 34 33 31 31 30 29 28 27 26 25 24 25 25 24 24 23 24 24 25 24 22 20 18 18 19 19 19 19 17
32 32 31 31 31 31 31 30 29 28 28 28 28 28 27 27 28 28 28 28 29 30 31 31 32 33 34 35 34 35 35 36 36 36 35 35 35 36 36 35 34 33 32 31 30 30 29 28 27 26 26 25 25 24 24 23 24 25 24 22 20 19 19 20 20 19 18 17 15
32 31 31 31 31 31 31 30 29 28 28 28 27 27 27 27 27 27 28 29 30 31 31 32 33 34 35 35 35 36 36 36 36 36 35 35 36 36 36 35 35 34 33 32 31 30 30 29 28 27 27 26 25 24 24 23 23 23 23 21 20 19 20 20 19 18 16 15 14
31 31 32 32 31 31 30 29 29 28 28 27 27 27 26 27 27 27 29 30 31 32 32 33 33 34 35 36 36 37 37 36 36 35 36 36 36 37 36 36 36 35 34 33 32 31 30 29 28 27 27 26 26 25 24 23 22 22 21 20 20 20 20 19 17 16 15 15 14
32 32 32 31 31 30 29 29 28 28 27 27 26 26 26 26 27 27 29 30 32 33 33 34 34 35 35 36 37 37 37 37 36 36 37 38 38 39 38 38 37 37 36 35 34 32 31 30 29 27 27 26 25 24 23 22 21 21 21 20 20 20 19 17 16 15 15 15 14
32 32 32 31 30 30 29 28 27 27 27 26 26 26 26 26 27 28 29 31 32 33 34 34 34 35 36 37 37 38 38 38 38 39 40 40 41 41 41 40 40 39 38 36 35 34 32 30 29 27 26 26 25 24 23 22 22 21 21 21 20 18 17 16 15 15 15 14 13
32 32 32 31 30 29 28 27 27 27 26 25 25 26 26 26 27 28 30 31 32 33 34 34 35 36 36 37 38 39 39 40 41 41 42 42 43 43 42 42 41 40 38 37 36 34 32 30 28 27 26 26 25 25 24 22 22 22 21 20 17 16 15 15 15 14 13 12 11
32 32 31 30 29 28 28 27 26 26 26 25 25 25 25 26 27 29 30 31 32 33 34 35 36 36 37 37 38 39 40 41 42 43 43 44 44 44 43 42 41 40 38 37 35 34 32 30 28 27 26 26 25 24 23 22 21 20 18 17 15 14 13 13 12 11 10 10 10
32 32 31 30 29 28 27 26 26 25 25 24 24 24 25 26 28 29 30 31 32 34 35 36 36 36 37 38 39 40 41 43 44 44 45 44 45 45 44 42 41 39 37 36 34 31 29 28 26 25 25 24 23 22 21 20 18 17 15 14 13 12 11 10 9 8 8 9 10
32 31 31 30 28 27 26 26 25 25 24 24 24 25 26 27 28 29 30 32 33 35 36 36 36 36 37 38 39 40 42 44 45 45 45 45 45 45 44 42 40 39 37 34 31 28 26 24 23 22 21 20 19 18 17 16 14 13 13 12 11 10 8 6 6 7 8 10 12
31 31 30 29 28 27 26 26 25 24 24 24 24 25 26 27 28 29 30 32 34 35 36 35 35 35 37 38 39 41 43 45 46 46 46 46 46 45 44 43 41 39 36 32 28 25 22 19 18 17 16 15 15 14 13 12 12 11 10 10 9 7 6 7 8 9 11 13 14
31 30 29 28 27 26 26 26 25 24 24 24 24 25 26 27 28 29 31 32 34 35 35 34 34 34 36 37 39 41 43 44 44 44 44 45 45 44 43 42 40 38 35 31 26 22 18 16 15 14 13 12 12 12 12 12 11 10 10 9 8 8 9 10 11 12 13 14 15
30 30 29 28 27 26 25 25 24 24 24 24 24 25 26 27 28 29 31 33 34 35 35 33 33 33 35 36 39 41 43 43 42 41 41 42 42 43 43 41 39 37 34 30 25 21 17 15 14 13 13 13 12 12 13 13 12 12 11 11 11 11 11 12 13 13 13 13 13
30 29 28 27 26 25 24 24 23 23 23 24 24 25 25 26 28 29 31 33 34 35 34 32 31 32 33 35 38 40 42 42 41 40 39 39 40 41 41 40 38 36 33 29 24 21 18 17 16 16 15 15 15 15 15 15 15 14 14 14 13 13 12 12 11 10 10 10 10
29 28 27 26 25 24 23 23 23 23 23 23 24 24 25 26 28 29 31 32 34 34 33 31 30 30 32 34 36 39 41 41 40 38 37 38 39 39 40 39 37 35 33 30 25 21 19 19 18 18 18 18 18 18 17 17 17 17 16 15 14 13 12 11 9 9 8 9 9
29 28 27 26 25 23 22 22 22 22 22 23 23 24 25 26 27 29 30 32 33 34 32 30 29 29 30 32 35 38 39 40 38 37 36 37 38 39 39 39 37 35 33 31 26 22 20 20 20 20 20 21 20 20 19 19 18 17 16 14 13 11 10 9 9 10 11 11 11
28 27 26 25 24 23 22 21 21 21 21 22 23 24 25 26 27 28 29 31 32 33 32 30 28 28 29 31 33 36 38 38 37 36 35 37 38 39 39 39 38 35 34 33 29 25 22 20 20 20 20 20 21 20 20 19 17 16 14 12 11 9 8 9 11 12 13 14 13
28 27 26 25 23 22 21 20 20 20 21 22 23 24 25 26 27 28 29 30 31 32 32 30 27 26 27 29 31 34 36 37 35 34 34 35 37 38 39 39 38 36 34 33 31 27 24 22 20 19 18 19 19 18 17 16 15 13 11 10 8 7 8 9 10 12 13 14 15
28 26 25 24 23 21 20 19 19 20 20 21 22 24 25 26 27 28 28 29 30 31 31 29 26 25 26 27 29 32 34 35 34 33 32 33 35 36 37 38 38 36 34 32 30 28 26 24 22 20 19 18 17 16 15 14 13 11 10 9 9 9 9 10 11 12 13 14 16
27 26 25 23 22 20 19 19 19 19 19 21 22 23 25 26 27 28 28 29 30 31 30 28 26 24 24 26 28 30 32 33 33 31 30 31 33 35 36 36 36 35 34 32 30 27 25 24 23 22 21 20 19 18 17 16 15 14 14 13 13 14 14 14 14 15 16 16 18
27 25 24 23 21 19 19 18 18 18 19 20 21 23 25 26 27 28 28 28 29 30 29 27 24 23 24 25 27 28 30 31 32 31 29 29 31 33 34 35 35 34 33 32 30 27 24 23 22 22 22 21 21 20 19 19 18 18 18 18 18 18 18 18 18 18 18 18 19
27 25 24 22 20 19 18 17 17 17 18 19 21 23 25 26 27 27 28 28 29 29 28 25 23 22 23 24 25 27 29 30 30 30 29 27 28 30 32 33 34 33 32 32 30 28 25 22 20 20 20 20 20 20 19 19 19 19 19 19 19 19 19 19 19 19 19 18 18
27 25 23 21 19 18 17 17 17 17 18 19 21 23 25 26 27 27 28 29 29 29 27 24 21 21 21 23 24 26 27 28 29 29 28 27 26 28 30 31 32 32 31 30 30 29 27 25 22 20 19 18 18 18 18 18 18 19 19 19 19 19 19 19 19 18 18 18 18
27 26 24 21 19 18 18 17 17 17 18 20 22 23 25 26 27 27 28 29 29 28 25 22 20 20 21 22 23 24 26 27 28 29 29 27 26 26 27 29 30 30 29 28 28 29 29 28 25 23 20 18 17 17 17 17 18 18 18 18 18 18 18 17 17 18 18 19 19
27 26 24 22 20 19 18 18 18 18 19 20 22 23 25 26 26 27 28 29 29 27 24 21 20 20 20 21 22 23 25 26 28 28 29 29 27 25 24 25 27 27 26 26 27 28 29 30 28 26 23 21 19 18 17 17 18 18 17 17 17 17 16 16 16 17 18 19 20
28 27 26 24 22 20 19 19 18 18 19 20 22 23 24 25 26 27 28 29 28 26 23 21 20 20 21 21 22 23 24 26 27 28 28 29 29 27 25 23 23 23 23 24 26 28 29 30 30 29 26 24 22 20 19 19 19 19 18 18 17 17 17 17 17 17 17 19 20
27 28 27 26 24 22 21 20 19 18 19 20 22 23 24 24 25 27 28 29 28 26 23 21 20 20 20 21 22 23 24 25 26 27 27 28 28 29 28 25 21 20 19 21 25 27 29 30 30 30 29 28 26 25 23 22 21 21 20 20 20 19 19 19 19 18 18 18 19
27 27 27 26 25 24 22 21 20 19 19 20 21 22 23 24 25 26 28 29 28 26 24 22 20 20 20 21 22 23 24 25 26 26 27 26 27 28 29 27 23 19 17 18 22 26 28 29 30 31 31 30 29 28 27 26 25 24 23 23 22 22 21 21 20 20 19 18 19
26 27 27 26 26 25 24 22 21 20 19 20 21 21 22 23 24 25 27 28 28 26 24 22 20 20 20 21 21 22 23 24 25 26 26 26 26 26 27 28 26 22 18 17 20 24 27 28 29 30 30 30 30 30 29 28 27 26 25 25 24 23 23 22 21 21 20 19 19
25 26 26 26 26 26 25 24 22 21 20 19 20 20 21 22 23 25 27 28 28 26 23 21 20 20 20 20 21 22 23 24 25 25 26 26 26 26 26 27 28 27 23 18 19 22 26 28 29 29 30 30 30 30 30 29 28 28 27 26 25 25 24 23 22 21 20 19 19
25 25 25 26 26 26 26 25 23 21 20 19 19 19 20 21 22 24 25 27 27 25 23 21 20 19 19 19 20 21 23 24 24 25 25 26 26 26 26 26 27 28 27 22 20 21 25 28 29 29 30 30 30 30 30 30 29 28 28 27 26 26 25 24 23 22 21 20 18
24 24 25 26 26 26 26 26 24 22 21 19 18 19 19 19 21 22 24 26 26 24 23 21 20 19 19 19 20 21 22 23 24 24 24 25 25 26 26 26 25 26 27 26 23 22 23 28 29 30 30 30 30 30 30 30 30 29 29 28 27 27 26 26 25 23 22 20 18
23 24 25 25 26 26 26 26 25 24 22 20 18 18 18 18 19 21 23 24 25 24 22 21 20 19 19 19 20 21 22 23 23 23 23 24 24 25 25 25 25 25 25 26 26 23 23 26 29 31 30 30 30 30 30 30 30 30 30 29 28 28 27 27 26 25 23 21 18
23 24 24 25 25 26 26 26 26 25 23 21 19 18 17 18 19 20 22 23 23 23 22 20 19 18 18 18 19 20 22 22 23 23 23 23 24 24 25 25 25 25 24 24 26 25 24 24 28 31 31 31 30 30 30 31 31 31 31 30 29 29 28 27 27 26 24 22 19
23 24 24 25 25 26 26 26 26 26 25 23 21 19 18 18 18 20 21 22 22 22 21 20 19 18 17 17 18 20 21 22 22 22 22 23 23 24 24 25 25 25 25 24 25 26 25 25 27 30 31 31 31 31 31 31 31 32 32 31 31 30 29 28 27 26 25 23 20
23 23 24 24 25 25 26 26 26 26 26 25 23 21 19 18 19 20 21 21 22 21 21 20 19 18 18 18 18 20 21 22 22 22 22 22 23 23 24 25 25 25 25 25 25 25 26 26 26 29 30 31 31 31 31 31 31 32 32 32 32 31 30 29 28 27 26 25 22
23 23 24 24 24 25 25 26 26 26 26 25 24 22 21 19 19 20 21 21 22 21 21 20 19 18 18 18 19 19 20 21 21 21 21 21 22 23 24 24 25 25 25 25 24 25 25 26 27 28 30 30 31 32 32 31 31 32 33 33 32 31 31 30 29 28 27 26 24
22 23 23 24 24 24 25 25 26 26 26 26 25 23 22 21 20 20 21 22 22 22 21 20 19 18 18 18 18 18 18 19 19 20 20 20 21 22 23 24 24 24 24 24 23 23 25 26 27 29 29 29 30 31 32 31 31 32 33 33 33 32 31 31 30 29 28 27 26
22 22 23 23 23 24 24 25 25 26 26 26 25 24 23 22 21 21 21 22 22 22 21 20 19 18 18 17 17 17 17 17 18 18 19 19 20 20 21 22 23 23 23 22 21 22 23 24 26 28 28 28 29 30 31 31 31 31 32 33 33 33 32 32 31 31 29 28 27
22 22 22 22 23 23 24 24 24 25 25 25 25 25 24 23 22 21 21 21 21 21 21 20 19 18 17 17 16 16 16 17 17 17 18 18 19 19 20 21 22 22 22 22 21 20 21 23 24 26 28 28 29 29 30 30 30 30 31 32 33 33 33 32 32 31 31 29 28
21 21 22 22 22 23 23 23 24 24 25 25 25 24 24 23 22 21 21 21 21 21 21 20 19 18 17 17 16 16 16 16 17 17 17 18 18 19 20 21 22 22 22 21 20 20 20 21 22 24 27 28 28 28 29 29 29 29 30 31 32 33 33 33 33 32 32 31 30
Wind_Direction
350 350 350 351 351 352 354 355 356 356 357 357 357 356 354 352 349 348 347 346 344 343 343 343 342 342 343 343 341 337 334 333 332 331 330 329 329 329 329 328 327 327 326 325 324 323 322 321 320 318 316 314 313 311 309 307 305 305 305 306 308 311 315 318 319 320 319 315 311
351 351 352 353 353 355 356 357 358 358 360 0 359 357 354 351 349 347 347 346 346 346 346 344 342 342 342 340 337 334 332 331 331 331 330 329 328 328 326 325 324 323 322 321 321 321 321 320 319 318 316 315 313 311 308 304 304 304 306 310 314 317 319 318 319 319 317 314 309
352 353 354 355 356 357 358 359 359 0 1 2 1 358 355 352 350 349 348 349 350 349 348 344 342 341 340 337 334 332 331 332 332 331 330 328 327 326 325 324 323 322 321 320 319 319 319 319 318 317 315 313 311 309 306 304 304 305 308 313 318 320 320 319 319 319 316 310 305
354 355 356 357 358 359 360 0 1 1 2 3 1 358 355 353 352 352 352 352 352 351 349 346 342 339 337 335 334 334 334 335 334 332 330 328 327 327 326 325 324 323 322 321 320 318 318 318 317 315 313 312 311 309 307 307 308 310 313 317 320 321 321 322 322 318 311 305 301
356 357 358 359 359 360 0 1 2 3 3 3 360 357 355 355 355 355 354 353 352 351 349 346 342 339 337 336 337 338 340 340 337 334 331 330 328 327 326 325 324 324 323 322 321 320 319 319 316 313 311 312 310 309 309 313 315 317 319 321 322 324 324 322 318 313 307 303 300
358 359 359 359 359 360 1 3 4 4 4 2 358 356 356 357 358 357 355 353 352 351 348 345 342 340 340 341 343 344 345 343 340 337 333 331 330 329 328 327 326 325 324 323 322 322 321 319 315 312 311 311 309 310 314 318 319 320 322 323 324 325 323 318 314 311 308 306 307
359 360 359 359 359 0 3 5 5 5 3 1 358 358 358 359 359 358 356 355 353 350 347 345 344 344 345 348 349 349 347 345 342 339 336 334 333 332 331 330 328 327 327 326 325 324 322 320 315 312 310 309 309 312 315 319 320 321 323 324 325 323 319 316 315 315 315 318 326
360 360 359 359 360 1 4 5 5 3 2 0 0 1 2 1 360 359 357 355 353 350 348 347 348 350 352 353 353 351 349 345 342 340 338 337 337 337 336 334 332 331 330 330 329 326 324 321 316 313 312 311 311 313 316 319 321 323 324 325 324 321 319 319 320 323 330 341 355
0 360 359 360 1 3 4 5 4 3 2 3 5 6 6 3 1 359 357 354 352 351 351 351 353 355 357 358 356 353 350 347 344 342 341 341 342 342 341 339 338 337 336 336 334 330 327 323 319 316 315 314 314 317 320 324 326 326 326 324 324 324 325 328 333 342 357 12 23
360 360 360 1 2 4 5 5 5 5 6 8 10 10 8 4 1 359 357 355 353 353 353 355 357 360 1 359 357 355 353 351 348 347 346 347 348 348 347 347 346 345 345 344 342 338 333 329 324 321 321 321 322 324 327 330 331 329 328 329 332 336 343 355 6 19 31 39 38
0 0 1 2 3 5 6 5 6 9 11 12 12 11 8 4 1 359 358 356 355 355 356 358 1 3 2 1 359 358 357 356 355 354 354 355 356 355 354 355 355 356 356 354 353 349 342 336 332 331 332 333 333 333 335 338 338 338 340 347 353 2 18 39 50 53 52 49 44
1 1 2 3 5 7 7 8 10 13 15 14 12 9 6 3 1 359 358 357 356 357 358 1 4 5 4 3 2 2 1 1 1 1 2 3 3 3 3 3 5 7 9 8 7 1 354 348 345 347 350 351 347 346 348 354 358 2 8 16 25 36 49 62 66 64 58 52 47
1 2 3 5 7 8 9 10 13 15 16 13 10 7 5 2 0 359 358 357 357 358 360 3 6 7 6 5 5 6 6 6 7 8 8 9 11 12 12 11 13 16 19 20 18 13 6 2 2 5 7 8 8 8 10 16 22 27 33 40 48 57 64 68 67 63 57 51 44
2 3 5 6 9 10 11 13 15 16 15 12 9 6 4 2 0 359 358 358 358 359 1 3 6 8 9 8 8 9 9 10 11 12 13 14 17 19 18 17 19 21 23 25 26 23 19 17 18 20 23 25 28 30 32 36 41 45 50 55 59 64 66 66 64 59 50 40 31
2 4 5 8 10 12 14 15 15 14 12 10 7 5 3 1 360 359 358 358 359 360 1 3 6 9 10 10 11 11 12 13 14 15 15 17 21 23 23 22 22 23 24 26 30 32 32 31 33 36 39 42 45 48 51 54 58 61 63 65 65 65 63 61 55 43 29 18 11
3 4 6 9 11 14 16 16 14 12 10 7 6 4 2 0 359 358 358 358 358 360 1 3 6 9 11 12 13 13 13 15 16 17 18 20 23 26 26 25 24 23 23 24 28 35 40 42 44 48 52 56 59 62 66 69 71 72 72 71 68 64 59 51 38 27 20 16 12
4 5 7 10 12 15 16 15 13 10 7 5 4 2 1 359 358 357 357 357 358 359 1 3 6 9 11 13 14 14 14 16 18 20 21 23 25 27 28 28 26 23 21 21 25 33 42 46 50 55 61 66 69 72 75 78 79 78 77 73 70 63 52 38 27 22 21 21 21
4 5 7 10 13 14 14 12 10 7 5 3 2 0 359 358 356 356 355 356 357 358 359 2 6 10 12 14 15 15 15 16 19 21 23 25 27 29 30 30 28 25 20 18 22 30 38 44 50 56 62 68 72 75 77 78 79 78 77 73 67 55 40 27 19 17 18 21 23
4 6 8 11 13 13 11 9 7 5 2 1 359 358 357 356 355 354 354 354 355 356 358 1 5 10 13 15 16 16 16 16 19 22 25 27 29 30 31 31 30 26 20 16 20 28 35 39 43 48 54 60 64 67 69 70 70 69 65 58 49 40 30 21 15 13 15 17 19
5 7 9 10 11 10 8 6 4 1 360 358 357 357 356 355 354 353 353 353 353 354 356 359 4 9 13 16 16 16 16 16 18 22 26 28 31 32 33 32 31 27 21 16 19 25 32 35 37 39 42 46 50 53 55 55 54 51 47 41 36 30 25 20 16 14 12 11 11
5 7 8 9 9 8 5 3 0 358 357 356 355 355 355 354 354 353 352 352 352 352 355 359 5 10 14 16 16 17 16 16 17 20 25 30 33 34 36 35 33 28 22 17 17 21 27 31 32 33 33 34 35 37 38 39 38 37 34 30 26 21 17 14 12 10 9 7 6
6 7 7 8 7 5 2 360 357 355 354 354 354 354 354 354 354 353 352 351 350 351 354 360 6 11 14 16 17 16 16 15 15 18 24 30 34 37 38 38 36 32 26 20 17 18 21 24 26 26 25 24 24 23 23 23 23 22 20 17 14 10 7 5 5 5 5 6 6
6 6 6 6 4 1 359 357 354 353 352 353 353 354 354 354 354 353 352 351 351 352 356 2 8 13 16 17 17 17 16 15 14 16 20 27 34 38 40 41 39 35 30 25 21 19 20 21 20 19 18 17 16 14 13 12 12 11 9 6 3 1 360 360 1 2 3 4 5
6 6 6 4 1 358 356 354 352 351 352 352 353 354 354 354 354 353 352 352 352 354 359 5 11 15 17 18 18 17 16 15 13 14 16 22 30 37 41 42 41 37 32 29 27 25 23 22 21 19 15 13 11 9 8 7 6 4 2 358 355 354 355 357 359 0 0 360 0
7 7 6 4 360 356 354 352 351 351 352 352 353 354 354 355 354 354 353 353 354 358 3 9 14 17 18 18 19 18 17 15 14 12 13 15 22 31 39 42 43 39 33 31 31 31 29 26 25 23 20 17 13 9 7 5 3 1 358 355 351 350 350 353 356 358 357 356 355
8 8 8 5 1 357 354 352 351 350 351 352 353 354 355 355 354 354 354 355 358 2 7 12 15 17 17 17 18 18 18 16 15 13 11 11 15 21 30 39 43 40 34 30 32 32 31 28 27 27 26 24 20 16 12 8 5 2 359 355 352 349 347 346 347 349 351 350 349
9 10 9 6 3 359 355 351 350 349 350 352 353 355 355 355 354 354 355 357 1 5 10 14 16 16 17 17 17 18 18 17 15 14 12 10 11 14 20 28 36 38 35 30 30 30 29 29 28 28 28 27 26 23 20 15 11 7 3 360 356 353 349 345 343 341 341 342 343
10 10 9 7 5 1 357 353 350 349 350 352 353 354 355 354 353 354 355 359 3 8 11 14 15 16 16 16 16 17 17 17 16 15 13 11 10 12 15 19 24 30 33 31 27 26 27 28 28 28 27 27 27 26 24 22 18 14 10 6 2 358 353 349 344 340 337 335 336
10 10 9 7 5 3 359 355 352 350 350 351 352 353 353 353 353 353 356 0 5 9 11 12 13 14 14 15 15 16 16 16 16 15 14 12 11 11 12 13 14 18 26 31 27 24 23 25 26 27 27 27 27 27 26 24 22 19 16 12 8 3 359 354 349 344 339 335 333
9 9 9 8 6 4 1 358 355 352 350 350 351 352 352 352 352 353 356 1 6 9 10 10 11 13 13 13 14 14 15 16 16 15 14 13 11 11 10 10 9 12 18 28 29 24 20 20 22 23 24 26 26 27 27 26 24 22 20 17 13 9 5 1 356 351 346 341 336
7 8 8 8 7 5 3 0 357 354 351 349 350 351 352 352 352 353 356 0 4 7 9 10 11 12 12 12 12 12 13 14 14 14 14 13 12 11 10 10 10 12 16 22 26 24 20 17 17 19 20 22 24 25 26 26 25 24 22 20 17 14 11 7 3 359 354 349 343
6 7 8 8 7 6 4 2 360 357 353 350 350 350 351 351 351 352 355 359 3 5 7 9 10 10 10 10 9 9 10 11 12 12 12 12 11 11 10 10 10 11 14 15 19 22 21 16 14 14 15 17 19 21 23 24 24 23 21 20 19 17 14 11 8 5 1 356 350
5 6 7 7 7 6 5 3 1 359 356 352 350 349 349 349 349 350 353 357 1 3 5 6 7 8 7 6 5 5 6 8 8 9 10 11 10 10 9 9 8 9 9 9 13 17 19 16 12 11 11 12 14 16 18 20 21 20 19 18 17 16 14 12 10 8 5 2 356
4 5 6 6 7 6 5 4 2 1 358 355 352 350 348 347 347 348 351 355 358 0 1 3 5 6 5 3 1 1 2 4 5 6 7 8 8 8 8 8 7 6 5 7 9 11 13 13 11 9 7 7 9 11 14 16 17 18 17 16 15 14 13 11 10 8 7 5 2
3 4 5 5 6 6 5 4 3 2 360 357 354 351 349 346 345 345 348 351 354 356 357 358 1 2 3 2 1 360 0 1 2 3 4 5 5 5 5 6 5 3 3 5 5 6 7 9 8 6 5 4 5 7 9 12 14 15 15 14 13 12 11 10 9 8 7 6 6
2 3 3 4 5 5 5 4 3 2 1 359 357 353 350 347 344 343 344 347 350 352 353 354 356 358 360 0 360 359 359 359 360 1 2 2 2 2 3 3 2 1 1 1 2 3 4 5 5 4 3 3 3 4 5 8 10 12 12 12 11 10 10 9 8 7 6 7 8
1 2 2 3 4 5 5 4 3 2 2 1 359 356 352 347 343 342 342 343 346 348 350 351 351 353 355 356 357 357 357 357 358 359 360 0 360 359 359 360 360 359 359 359 1 2 2 2 2 1 1 2 3 2 2 4 7 9 9 9 9 9 9 8 7 6 6 7 8
0 1 1 2 3 4 4 4 3 3 2 2 0 358 354 349 345 342 342 341 342 344 346 347 348 349 350 351 351 352 353 355 356 357 358 358 358 357 356 356 356 357 357 358 1 2 360 359 359 358 359 1 3 2 1 1 4 6 6 7 7 7 8 7 6 6 6 7 8
359 359 360 1 2 3 4 4 4 3 2 2 1 359 357 353 348 345 342 340 339 339 341 343 345 345 345 346 346 347 348 350 351 353 355 356 356 355 353 352 353 354 355 356 360 360 357 356 357 357 357 360 2 1 360 359 1 3 4 4 5 6 6 7 6 5 6 7 8
357 357 358 359 1 2 3 4 5 4 3 2 1 360 358 355 351 347 343 340 338 337 337 338 340 341 342 342 342 342 342 343 345 347 350 351 352 352 351 349 349 351 352 354 357 358 356 353 355 356 356 358 1 0 359 358 360 1 2 3 3 4 5 6 6 5 6 7 9
354 355 356 358 359 1 2 4 5 5 5 4 2 1 359 356 353 349 345 341 338 336 334 334 335 336 338 338 338 338 338 339 340 342 344 346 347 348 348 347 346 347 348 350 354 354 353 351 351 353 355 357 359 359 357 357 359 359 360 1 2 3 4 5 5 5 6 7 9
Height
1534 1533 1531 1529 1527 1525 1524 1521 1520 1519 1517 1515 1513 1511 1510 1509 1507 1505 1504 1503 1501 1499 1497 1495 1494 1491 1489 1487 1485 1483 1481 1479 1477 1474 1472 1469 1467 1465 1463 1461 1460 1458 1457 1455 1454 1453 1451 1450 1449 1448 1447 1445 1444 1444 1443 1442 1441 1440 1439 1438 1437 1436 1435 1435 1434 1434 1434 1434 1433
1534 1533 1531 1529 1528 1525 1523 1521 1520 1518 1516 1515 1513 1512 1510 1509 1507 1506 1504 1503 1501 1499 1497 1495 1493 1491 1489 1486 1484 1483 1480 1478 1475 1472 1470 1467 1465 1464 1462 1460 1459 1457 1456 1454 1453 1451 1450 1449 1448 1446 1445 1444 1443 1442 1441 1441 1440 1439 1438 1436 1436 1435 1434 1434 1433 1433 1433 1432 1432
1535 1533 1531 1529 1527 1524 1523 1521 1519 1518 1516 1515 1514 1512 1511 1509 1508 1506 1504 1503 1501 1499 1497 1495 1493 1490 1488 1486 1484 1482 1479 1476 1474 1471 1468 1466 1464 1462 1461 1459 1458 1456 1454 1453 1452 1450 1449 1447 1446 1445 1444 1443 1441 1440 1439 1439 1438 1437 1436 1435 1434 1434 1433 1433 1432 1432 1431 1431 1430
1534 1532 1530 1528 1526 1524 1523 1521 1519 1517 1516 1514 1513 1512 1511 1509 1508 1506 1504 1503 1501 1499 1497 1495 1493 1490 1488 1486 1483 1481 1478 1475 1472 1469 1467 1464 1463 1461 1459 1458 1456 1454 1453 1451 1450 1448 1447 1446 1445 1444 1442 1441 1439 1439 1438 1437 1436 1435 1435 1434 1433 1433 1432 1432 1431 1431 1430 1429 1429
1534 1532 1530 1528 1526 1524 1523 1521 1519 1517 1516 1514 1513 1512 1511 1509 1508 1506 1504 1503 1501 1499 1497 1495 1493 1490 1488 1485 1483 1479 1476 1473 1470 1468 1465 1463 1461 1459 1458 1456 1454 1452 1450 1449 1448 1446 1445 1444 1443 1442 1440 1439 1438 1437 1436 1435 1434 1434 1434 1433 1432 1432 1431 1431 1430 1429 1429 1429 1428
1533 1531 1529 1527 1526 1524 1522 1520 1519 1518 1516 1514 1514 1512 1510 1509 1508 1506 1504 1503 1500 1499 1497 1495 1493 1490 1488 1484 1481 1478 1474 1472 1469 1467 1464 1462 1460 1458 1456 1454 1452 1450 1449 1447 1445 1444 1443 1442 1441 1440 1439 1438 1436 1435 1434 1434 1433 1433 1432 1432 1431 1431 1430 1429 1429 1429 1428 1428 1427
1533 1530 1529 1527 1525 1524 1522 1520 1519 1517 1516 1515 1513 1512 1510 1509 1508 1506 1504 1503 1500 1498 1496 1494 1492 1489 1487 1484 1480 1477 1474 1471 1468 1466 1464 1462 1459 1457 1454 1452 1450 1448 1446 1445 1443 1442 1441 1440 1439 1438 1437 1436 1435 1434 1433 1433 1432 1432 1431 1430 1430 1430 1429 1429 1428 1428 1427 1427 1427
1532 1530 1529 1527 1525 1523 1522 1520 1519 1517 1516 1514 1513 1512 1510 1509 1508 1506 1504 1502 1500 1499 1497 1494 1492 1489 1486 1483 1480 1477 1474 1471 1468 1466 1463 1461 1458 1455 1453 1450 1448 1446 1444 1443 1441 1440 1439 1438 1438 1436 1435 1434 1433 1432 1432 1432 1431 1431 1430 1429 1429 1429 1428 1428 1428 1427 1427 1427 1426
1531 1530 1528 1526 1525 1523 1521 1520 1519 1517 1516 1514 1513 1512 1511 1509 1508 1506 1504 1502 1500 1499 1496 1494 1491 1489 1486 1483 1480 1477 1474 1471 1468 1465 1462 1460 1457 1454 1451 1449 1447 1444 1443 1441 1439 1438 1437 1437 1435 1434 1434 1433 1432 1431 1430 1430 1430 1429 1429 1428 1428 1428 1428 1428 1427 1427 1427 1426 1426
1531 1529 1528 1526 1524 1523 1521 1520 1519 1517 1516 1514 1513 1512 1511 1509 1508 1506 1504 1503 1501 1499 1496 1494 1491 1488 1485 1483 1480 1477 1474 1471 1468 1465 1462 1459 1456 1453 1451 1448 1446 1443 1441 1439 1438 1437 1436 1434 1434 1433 1432 1431 1430 1430 1429 1429 1429 1429 1428 1428 1427 1427 1427 1427 1427 1427 1427 1426 1425
1531 1529 1528 1526 1524 1523 1521 1519 1518 1517 1516 1514 1514 1512 1511 1509 1508 1506 1504 1503 1500 1498 1496 1494 1491 1488 1485 1483 1480 1478 1475 1472 1469 1465 1462 1459 1456 1453 1451 1448 1445 1443 1440 1439 1437 1436 1434 1433 1432 1431 1431 1430 1429 1429 1429 1428 1428 1428 1428 1427 1427 1427 1427 1427 1427 1427 1426 1426 1425
1531 1529 1527 1526 1524 1523 1521 1519 1518 1517 1516 1515 1514 1512 1511 1509 1508 1506 1504 1502 1500 1498 1496 1493 1491 1488 1486 1483 1481 1478 1475 1473 1469 1466 1463 1459 1456 1454 1451 1449 1446 1444 1441 1439 1437 1435 1434 1432 1431 1430 1430 1430 1429 1429 1428 1428 1428 1428 1428 1428 1428 1427 1427 1427 1427 1427 1426 1426 1426
1531 1529 1527 1526 1524 1522 1521 1519 1518 1517 1516 1515 1514 1512 1511 1509 1508 1506 1504 1502 1500 1498 1495 1493 1491 1489 1487 1484 1481 1479 1476 1473 1470 1467 1464 1461 1458 1455 1452 1449 1447 1445 1442 1440 1438 1436 1434 1433 1431 1431 1430 1430 1429 1429 1429 1429 1428 1428 1428 1428 1428 1428 1428 1427 1427 1427 1427 1427 1426
1531 1529 1527 1525 1524 1522 1521 1519 1518 1517 1516 1515 1514 1512 1511 1509 1508 1506 1504 1502 1500 1498 1496 1494 1492 1490 1487 1485 1482 1479 1477 1474 1471 1468 1465 1463 1459 1456 1453 1451 1449 1447 1444 1442 1439 1437 1435 1434 1433 1432 1431 1430 1430 1430 1429 1429 1429 1429 1429 1429 1428 1428 1428 1428 1428 1428 1427 1427 1427
1530 1529 1527 1525 1524 1522 1521 1520 1519 1517 1516 1515 1514 1513 1511 1509 1508 1506 1504 1502 1500 1498 1496 1494 1492 1490 1488 1485 1483 1480 1478 1475 1472 1469 1466 1464 1461 1458 1454 1452 1450 1449 1447 1444 1441 1439 1437 1436 1434 1434 1433 1432 1431 1431 1430 1430 1430 1430 1429 1429 1429 1429 1429 1429 1428 1428 1428 1427 1427
1530 1529 1527 1525 1524 1522 1521 1520 1519 1518 1517 1515 1514 1513 1511 1509 1508 1506 1504 1502 1500 1499 1497 1495 1493 1490 1488 1486 1483 1481 1478 1475 1473 1470 1467 1465 1462 1459 1456 1454 1452 1451 1449 1446 1444 1441 1439 1438 1436 1435 1434 1433 1433 1432 1431 1431 1431 1431 1430 1430 1430 1430 1429 1429 1429 1429 1428 1427 1427
1530 1529 1527 1525 1524 1523 1521 1520 1519 1518 1517 1515 1514 1513 1511 1510 1508 1506 1504 1503 1501 1499 1497 1495 1493 1491 1489 1486 1484 1481 1479 1476 1474 1471 1469 1466 1463 1461 1458 1455 1454 1453 1452 1449 1447 1444 1442 1440 1439 1437 1436 1435 1434 1433 1433 1432 1432 1432 1431 1431 1431 1431 1430 1430 1429 1429 1428 1428 1427
1530 1528 1527 1525 1524 1523 1522 1520 1519 1518 1517 1515 1514 1513 1511 1510 1508 1506 1505 1503 1501 1499 1497 1495 1494 1492 1489 1487 1484 1482 1479 1477 1475 1473 1470 1468 1465 1463 1460 1458 1456 1455 1454 1452 1449 1447 1445 1443 1441 1440 1438 1437 1436 1435 1434 1434 1433 1433 1433 1432 1432 1431 1431 1431 1430 1429 1429 1428 1427
1530 1528 1527 1525 1524 1523 1522 1520 1519 1518 1517 1516 1514 1513 1512 1510 1508 1507 1505 1503 1501 1499 1498 1496 1494 1492 1490 1488 1485 1483 1480 1478 1476 1474 1471 1469 1467 1464 1462 1459 1458 1457 1456 1454 1452 1449 1448 1446 1444 1443 1441 1440 1439 1438 1437 1436 1435 1435 1434 1434 1433 1433 1432 1432 1431 1430 1429 1429 1428
1530 1528 1527 1525 1524 1523 1522 1520 1519 1518 1517 1516 1514 1513 1512 1510 1509 1506 1504 1503 1501 1499 1498 1496 1494 1492 1490 1488 1485 1483 1481 1479 1477 1475 1473 1470 1468 1465 1463 1461 1459 1459 1458 1456 1453 1451 1450 1448 1447 1445 1444 1443 1441 1440 1439 1438 1438 1437 1436 1435 1435 1434 1433 1433 1432 1431 1430 1429 1428
1530 1528 1527 1525 1524 1523 1522 1520 1519 1518 1517 1516 1514 1513 1512 1510 1508 1506 1504 1503 1501 1499 1498 1496 1494 1492 1490 1488 1486 1484 1482 1480 1478 1476 1474 1472 1469 1467 1464 1463 1461 1460 1459 1457 1455 1453 1451 1450 1449 1447 1446 1445 1444 1442 1441 1440 1439 1438 1437 1437 1436 1435 1434 1433 1432 1431 1430 1429 1428
1530 1528 1526 1525 1524 1523 1522 1521 1519 1518 1517 1516 1514 1513 1512 1510 1508 1506 1504 1503 1501 1499 1498 1496 1494 1492 1490 1488 1486 1484 1482 1481 1479 1477 1475 1473 1470 1468 1466 1464 1462 1462 1461 1459 1456 1454 1452 1451 1449 1448 1447 1446 1444 1443 1442 1441 1440 1439 1438 1437 1436 1435 1434 1433 1432 1431 1430 1429 1428
1530 1528 1526 1525 1524 1523 1522 1520 1519 1518 1517 1515 1514 1513 1511 1510 1508 1506 1504 1503 1501 1499 1497 1496 1494 1493 1491 1489 1487 1485 1483 1481 1479 1478 1476 1474 1472 1469 1467 1465 1464 1463 1462 1461 1458 1455 1453 1452 1450 1449 1447 1446 1445 1444 1443 1441 1440 1439 1438 1437 1436 1435 1434 1433 1432 1431 1430 1429 1428
1530 1528 1526 1525 1524 1523 1522 1520 1519 1518 1517 1515 1514 1513 1511 1509 1508 1506 1504 1502 1501 1499 1497 1495 1494 1492 1491 1489 1487 1485 1483 1481 1479 1478 1476 1474 1473 1470 1468 1466 1464 1464 1464 1463 1460 1458 1455 1453 1451 1449 1448 1447 1445 1444 1443 1441 1440 1439 1438 1437 1436 1435 1434 1434 1432 1431 1430 1429 1427
1530 1528 1526 1525 1524 1523 1521 1520 1519 1518 1516 1515 1514 1513 1511 1509 1507 1506 1504 1502 1500 1499 1497 1495 1494 1492 1491 1489 1487 1485 1484 1482 1480 1478 1476 1475 1473 1471 1469 1467 1466 1466 1466 1464 1463 1460 1457 1454 1453 1451 1449 1448 1446 1445 1443 1442 1440 1439 1438 1437 1436 1435 1434 1433 1432 1431 1429 1428 1427
1530 1528 1527 1525 1524 1523 1521 1520 1519 1518 1516 1515 1514 1512 1511 1509 1507 1506 1504 1502 1500 1499 1497 1495 1494 1492 1491 1489 1488 1486 1484 1482 1480 1479 1477 1475 1474 1472 1470 1469 1467 1467 1467 1466 1464 1461 1459 1456 1454 1452 1450 1449 1447 1445 1444 1443 1441 1440 1439 1437 1436 1435 1434 1432 1431 1430 1429 1428 1427
1530 1529 1527 1525 1524 1523 1521 1520 1519 1518 1516 1515 1514 1512 1510 1509 1507 1505 1504 1502 1500 1499 1497 1495 1494 1492 1491 1489 1488 1486 1484 1483 1481 1479 1478 1476 1474 1472 1470 1469 1468 1468 1468 1467 1464 1462 1460 1458 1455 1453 1451 1449 1448 1446 1444 1443 1442 1440 1439 1437 1436 1435 1434 1432 1431 1430 1429 1428 1427
1530 1529 1527 1525 1524 1523 1521 1520 1518 1517 1516 1514 1513 1512 1510 1509 1507 1505 1504 1502 1500 1499 1497 1495 1494 1493 1491 1489 1488 1487 1485 1484 1482 1480 1478 1477 1475 1473 1471 1470 1469 1468 1468 1467 1464 1462 1461 1459 1457 1454 1452 1450 1448 1447 1445 1444 1442 1441 1439 1438 1436 1435 1434 1433 1431 1430 1429 1428 1427
1530 1529 1527 1525 1524 1522 1521 1519 1518 1517 1515 1514 1513 1512 1510 1509 1507 1505 1504 1502 1500 1498 1497 1495 1494 1493 1491 1490 1489 1487 1486 1484 1482 1481 1479 1477 1476 1474 1472 1470 1469 1468 1468 1467 1464 1462 1461 1459 1457 1455 1454 1452 1449 1448 1446 1444 1443 1441 1440 1438 1437 1436 1434 1433 1432 1430 1429 1428 1427
1531 1529 1527 1526 1524 1522 1521 1519 1518 1517 1515 1514 1513 1511 1510 1509 1507 1505 1504 1502 1500 1499 1497 1496 1494 1493 1491 1490 1489 1487 1486 1484 1483 1481 1480 1478 1476 1474 1473 1471 1469 1468 1468 1468 1464 1462 1460 1459 1458 1456 1454 1453 1451 1449 1447 1446 1444 1442 1441 1439 1438 1437 1435 1434 1432 1431 1429 1428 1427
1531 1529 1527 1526 1524 1522 1521 1519 1518 1516 1515 1514 1513 1511 1510 1508 1507 1505 1504 1502 1501 1499 1498 1496 1495 1493 1492 1490 1489 1488 1486 1485 1483 1482 1480 1479 1477 1475 1474 1472 1470 1469 1468 1469 1465 1462 1460 1459 1458 1456 1455 1454 1452 1450 1448 1447 1445 1444 1442 1441 1439 1437 1436 1434 1433 1431 1429 1428 1426
1531 1529 1527 1525 1524 1522 1521 1519 1517 1516 1515 1513 1512 1511 1509 1508 1507 1505 1504 1502 1501 1499 1498 1496 1495 1493 1492 1490 1489 1488 1487 1485 1484 1482 1481 1479 1478 1476 1474 1473 1471 1469 1468 1468 1466 1463 1461 1459 1458 1457 1455 1454 1453 1451 1449 1448 1446 1444 1443 1441 1440 1438 1436 1435 1433 1431 1430 1428 1426
1531 1529 1527 1526 1524 1522 1520 1519 1517 1516 1514 1513 1512 1510 1509 1508 1506 1505 1504 1502 1501 1499 1498 1496 1495 1493 1492 1490 1489 1488 1487 1485 1484 1483 1481 1480 1478 1477 1475 1473 1472 1470 1469 1468 1467 1464 1461 1459 1458 1457 1456 1454 1453 1451 1450 1448 1447 1445 1444 1442 1440 1439 1437 1435 1434 1432 1430 1428 1427
1531 1529 1527 1526 1524 1522 1520 1519 1517 1516 1514 1513 1511 1510 1509 1507 1506 1505 1503 1502 1501 1499 1498 1497 1495 1494 1492 1491 1490 1488 1487 1485 1484 1483 1481 1480 1479 1477 1475 1474 1472 1470 1469 1467 1466 1464 1462 1459 1458 1457 1456 1455 1453 1452 1450 1449 1447 1445 1444 1442 1441 1439 1438 1436 1434 1432 1430 1429 1427
1530 1529 1527 1525 1524 1522 1520 1519 1517 1515 1514 1512 1511 1510 1509 1507 1506 1504 1503 1502 1501 1499 1498 1497 1496 1494 1493 1492 1490 1489 1487 1485 1484 1483 1481 1480 1479 1477 1475 1474 1472 1471 1469 1467 1466 1464 1463 1460 1458 1456 1456 1454 1453 1452 1450 1449 1447 1445 1444 1443 1441 1439 1438 1436 1434 1433 1431 1429 1427
1530 1529 1527 1525 1524 1522 1520 1519 1517 1515 1514 1512 1510 1509 1508 1507 1505 1504 1503 1502 1501 1499 1498 1497 1495 1494 1493 1491 1490 1489 1487 1486 1484 1483 1481 1480 1479 1477 1475 1474 1472 1471 1469 1467 1466 1464 1463 1462 1459 1456 1455 1454 1453 1451 1450 1449 1447 1446 1444 1443 1441 1439 1438 1436 1434 1433 1431 1429 1427
1530 1529 1527 1525 1524 1522 1520 1519 1517 1515 1514 1512 1510 1509 1508 1506 1505 1504 1503 1501 1500 1499 1498 1497 1495 1494 1493 1491 1490 1489 1488 1486 1484 1483 1481 1480 1479 1477 1475 1474 1473 1471 1469 1468 1466 1464 1463 1462 1459 1457 1455 1454 1452 1451 1450 1449 1447 1446 1444 1443 1441 1439 1438 1436 1434 1433 1431 1429 1427
1530 1529 1527 1526 1524 1522 1521 1519 1517 1515 1514 1512 1510 1509 1508 1506 1505 1504 1502 1501 1500 1499 1498 1496 1495 1494 1493 1491 1490 1489 1488 1486 1485 1483 1481 1480 1479 1477 1475 1474 1473 1471 1470 1468 1466 1464 1463 1461 1460 1458 1455 1454 1452 1451 1450 1449 1447 1446 1444 1443 1441 1439 1438 1436 1434 1433 1431 1429 1427
1531 1529 1528 1526 1524 1523 1521 1519 1517 1515 1514 1512 1510 1509 1508 1506 1505 1504 1502 1501 1500 1499 1498 1496 1495 1494 1493 1491 1490 1489 1488 1486 1485 1483 1482 1480 1479 1477 1476 1474 1473 1471 1470 1469 1467 1465 1463 1461 1460 1458 1456 1454 1452 1451 1450 1449 1447 1446 1444 1443 1441 1439 1438 1436 1434 1433 1431 1429 1427
1531 1529 1528 1526 1524 1523 1521 1519 1518 1516 1514 1512 1510 1509 1507 1506 1505 1504 1502 1501 1500 1499 1498 1496 1495 1494 1493 1491 1490 1489 1487 1486 1484 1483 1482 1480 1479 1478 1476 1474 1473 1471 1470 1469 1467 1466 1464 1462 1460 1459 1457 1454 1452 1451 1450 1449 1447 1446 1444 1443 1441 1439 1438 1436 1434 1432 1430 1428 1427
1531 1529 1528 1526 1524 1523 1521 1519 1518 1516 1514 1513 1511 1509 1508 1506 1505 1504 1502 1501 1500 1499 1497 1496 1495 1494 1493 1491 1490 1488 1487 1485 1484 1483 1482 1480 1479 1478 1476 1474 1473 1471 1470 1469 1467 1466 1464 1462 1460 1459 1457 1455 1453 1451 1450 1449 1447 1446 1444 1443 1441 1439 1438 1435 1434 1432 1430 1428 1426